Weather History for KLUF - July, 2013

Change the Weather History Date:

Wednesday, July 10, 2013

  Actual Average Record
Temperature  
Mean Temperature 93 °F -  
Max Temperature 102 °F 108 °F 116 °F (1934)
Min Temperature 84 °F 75 °F 59 °F (1926)
Cooling Degree Days 28    
Growing Degree Days 43 (Base 50)    
Moisture  
Dew Point 64 °F    
Average Humidity 38    
Maximum Humidity 59    
Minimum Humidity 26    
Precipitation  
Precipitation 0.00 in - - ()
Sea Level Pressure  
Sea Level Pressure 29.84 in    
Wind  
Wind Speed 17 mph (SW)    
Max Wind Speed 25 mph    
Max Gust Speed 30 mph    
Visibility 10 miles    
Events      
Averages and records for this station are not official NWS values.
T = Trace of Precipitation, MM = Missing Value Source: NWS Daily Summary

Daily Weather History Graph

Daily Weather History Graph

Search for Another Location

Airport or City:

Trip Planner

Search our weather history database for the weather conditions in past years. The results will help you decide how hot, cold, wet, or windy it might be!

Date:

Astronomy

Jul. 10, 2013 Rise Set
Actual Time 5:27 AM MST 7:41 PM MST
Civil Twilight 4:59 AM MST 8:10 PM MST
Nautical Twilight 4:24 AM MST 8:45 PM MST
Astronomical Twilight 3:46 AM MST 9:22 PM MST
Moon 7:43 AM MST (7/10) 9:04 PM MST (7/10)
Length of Visible Light 15h 11m
Length of Day
14h 14m
Waxing Crescent, 6% of the Moon is Illuminated
Jul 10
Waxing Crescent
Jul 15
First Quarter
Jul 22
Full
Jul 29
Last Quarter
Aug 6
New

Hourly Weather History & Observations

Time (MST) Temp. Heat Index Dew Point Humidity Pressure Visibility Wind Dir Wind Speed Gust Speed Precip Events Conditions
12:58 AM 91.0 °F 93.0 °F 64.8 °F 42% 29.81 in 10.0 mi SW 20.7 mph - N/A   Scattered Clouds
1:58 AM 88.9 °F 91.4 °F 66.6 °F 47% 29.86 in 10.0 mi SSW 23.0 mph - N/A   Mostly Cloudy
2:48 AM 87.8 °F 90.4 °F 66.2 °F 49% 29.94 in 4.0 mi SW 25.3 mph 29.9 mph N/A   Haze
2:58 AM 87.8 °F 91.4 °F 68.0 °F 52% 29.90 in 6.0 mi SW 24.2 mph - N/A   Haze
3:58 AM 85.1 °F 87.9 °F 67.5 °F 55% 29.91 in 10.0 mi WSW 18.4 mph - N/A   Partly Cloudy
4:58 AM 85.1 °F 87.9 °F 67.5 °F 55% 29.88 in 10.0 mi West 10.4 mph - N/A   Overcast
5:58 AM 84.9 °F 87.9 °F 67.8 °F 56% 29.90 in 10.0 mi NNE 4.6 mph - N/A   Partly Cloudy
6:58 AM 84.9 °F 88.8 °F 68.9 °F 59% 29.91 in 10.0 mi NNE 2.3 mph - N/A   Scattered Clouds
7:58 AM 87.6 °F 91.1 °F 67.8 °F 52% 29.92 in 10.0 mi NNW 3.5 mph - N/A   Partly Cloudy
8:58 AM 89.8 °F 92.9 °F 67.3 °F 47% 29.92 in 10.0 mi South 4.6 mph - N/A   Clear
9:58 AM 91.8 °F 95.1 °F 66.7 °F 44% 29.91 in 10.0 mi SSE 8.1 mph - 0.00 in   Clear
10:58 AM 95.0 °F 97.9 °F 65.5 °F 38% 29.90 in 10.0 mi South 13.8 mph 20.7 mph N/A   Scattered Clouds
11:58 AM 96.1 °F 98.8 °F 64.8 °F 36% 29.88 in 10.0 mi SSW 15.0 mph - N/A   Mostly Cloudy
12:58 PM 98.4 °F 101.3 °F 64.6 °F 33% 29.85 in 10.0 mi SSW 18.4 mph - N/A   Scattered Clouds
1:58 PM 100.6 °F 102.7 °F 63.1 °F 29% 29.81 in 10.0 mi SW 21.9 mph - N/A   Scattered Clouds
2:52 PM 102.2 °F 104.2 °F 62.6 °F 27% 29.84 in 10.0 mi WSW 16.1 mph 24.2 mph N/A   Clear
2:58 PM 101.5 °F 103.6 °F 62.2 °F 28% 29.80 in 10.0 mi SW 16.1 mph 24.2 mph N/A   Clear
3:28 PM 102.2 °F 104.2 °F 62.6 °F 27% 29.82 in 10.0 mi SSW 17.3 mph 21.9 mph N/A   Clear
3:41 PM 102.2 °F 103.6 °F 60.8 °F 26% 29.81 in 10.0 mi WSW 19.6 mph 25.3 mph N/A   Clear
3:42 PM 102.2 °F 103.6 °F 60.8 °F 26% 29.81 in 10.0 mi WSW 19.6 mph 25.3 mph N/A   Clear
3:58 PM 102.0 °F 103.9 °F 61.7 °F 27% 29.77 in 10.0 mi SW 16.1 mph 24.2 mph N/A   Clear
4:58 PM 102.6 °F 104.8 °F 62.2 °F 27% 29.75 in 10.0 mi SW 19.6 mph 27.6 mph N/A   Clear
5:58 PM 101.5 °F 103.0 °F 61.3 °F 27% 29.74 in 10.0 mi SSW 16.1 mph - N/A   Mostly Cloudy
6:58 PM 100.4 °F 101.8 °F 62.2 °F 28% 29.75 in 10.0 mi SW 17.3 mph - N/A   Mostly Cloudy
7:58 PM 98.8 °F 99.7 °F 61.3 °F 29% 29.75 in 10.0 mi SW 16.1 mph - N/A   Mostly Cloudy
8:58 PM 97.5 °F 98.7 °F 61.9 °F 31% 29.79 in 10.0 mi SSW 12.7 mph - 0.00 in   Clear
9:58 PM 96.3 °F 97.2 °F 61.5 °F 32% 29.78 in 10.0 mi SW 12.7 mph - N/A   Partly Cloudy
10:58 PM 94.8 °F 95.8 °F 62.8 °F 34% 29.80 in 10.0 mi SW 12.7 mph - N/A   Clear
11:58 PM 90.9 °F 93.5 °F 66.0 °F 44% 29.81 in 10.0 mi SSW 18.4 mph - N/A   Clear